Flag for Japan Weather past 2 weeks in Yokosuka, Japan

Now
72 °F

Light rain. Partly sunny.


Feels Like: 69 °F
Forecast: 71 / 77 °F
Wind: 12 mph from Northeast

Location: Tokyo International Airport

Current Time: Aug 28, 2014 at 12:13:27 PM

Latest Report: Aug 28, 2014 at 11:30 AM


Visibility: N/A

Pressure: 29.95 "Hg

Humidity: 88%

Dew point: 68 °F

Location of YokosukaLocation

Historic Weather in Yokosuka — Graph

°F

Yokosuka temperature yesterday

Maximum temperature yesterday: 75 °F (at 12:00 AM)
Minimum temperature yesterday: 68 °F (at 7:30 AM)
Average temperature yesterday: 71 °F

Past Weeks' High & Low Weather Summary

 TemperatureHumidityPressure
High91 °F (Aug 19, 2:00 PM)100% (Aug 28, 5:30 AM)30.01 "Hg (Aug 28, 5:30 AM)
Low68 °F (Aug 27, 7:30 AM)59% (Aug 17, 3:00 PM)29.68 "Hg (Aug 15, 3:00 PM)
Average81 °F79%29.86 "Hg
* Reported Aug 13 10:00 AM — Aug 28 10:30 AM, Yokosuka, Weather by CustomWeather, © 2014

Note: Actual official high and low records may vary slightly from our data, if they occured in-between our weather recording intervals... More about our weather records

Advertising

Yokosuka weather history for previous 24 hours

 ConditionsComfort  
Time TempWeatherWind HumidityBarometerVisibility
10:30 AM
Aug 28
70 °FLight rain. Partly sunny.9 mph88%29.98 "HgN/A
10:00 AM70 °FLight rain. Broken clouds.10 mph88%29.98 "HgN/A
9:30 AM70 °FLight rain. Broken clouds.12 mph88%29.98 "Hg5 mi
9:00 AM70 °FLight rain. Fog.12 mph94%29.98 "Hg4 mi
8:30 AM70 °FLight rain. Fog.10 mph94%29.98 "Hg4 mi
8:00 AM68 °FLight rain. Fog.10 mph94%29.98 "Hg3 mi
7:30 AM68 °FLight rain. Partly sunny.10 mph94%29.98 "Hg5 mi
7:00 AM68 °FLight rain. Fog.10 mph94%29.98 "Hg3 mi
6:30 AM68 °FLight rain. Fog.12 mph94%29.98 "Hg3 mi
6:00 AM68 °FLight rain. Fog.10 mph94%29.98 "Hg2 mi
5:30 AM68 °FLight rain. Fog.10 mph100%29.98 "Hg2 mi
5:00 AM68 °FLight rain. Fog.10 mph94%29.95 "Hg2 mi
4:30 AM68 °FLight rain. Partly cloudy.12 mph94%29.95 "Hg4 mi
4:00 AM70 °FLight rain. Partly cloudy.12 mph88%29.95 "HgN/A
3:30 AM68 °FLight rain. Partly cloudy.10 mph94%29.95 "HgN/A
2:30 AM68 °FLight rain. Passing clouds.10 mph94%29.98 "Hg4 mi
2:00 AM68 °FRain. Fog.13 mph94%29.98 "Hg4 mi
1:30 AM68 °FRain. Fog.9 mph94%29.98 "Hg2 mi
1:00 AM68 °FLight rain. Fog.13 mph94%29.95 "Hg2 mi
12:00 AM68 °FLight rain. Fog.13 mph94%29.98 "Hg3 mi
11:30 PM
Aug 27
70 °FLight rain. Fog.14 mph94%29.98 "HgN/A
11:00 PM68 °FLight rain. Partly cloudy.15 mph94%29.98 "HgN/A
10:30 PM68 °FLight rain. Fog.14 mph94%29.98 "Hg4 mi
10:00 PM70 °FLight rain. Partly cloudy.13 mph88%30.01 "Hg5 mi
9:51 PM68 °FLight rain. Partly cloudy.14 mph94%30.01 "Hg5 mi
9:30 PM70 °FRain. Partly cloudy.15 mph88%30.01 "Hg5 mi
9:00 PM70 °FRain. Fog.16 mph88%29.98 "Hg3 mi
8:46 PM70 °FRain. Fog.14 mph88%29.98 "Hg4 mi
8:30 PM70 °FLight rain. Passing clouds.15 mph88%29.98 "HgN/A
8:00 PM70 °FLight rain. Passing clouds.14 mph88%29.98 "Hg4 mi
7:30 PM70 °FLight rain. Partly cloudy.12 mph94%29.98 "HgN/A
7:00 PM70 °FLight rain. Passing clouds.13 mph88%29.98 "HgN/A
6:30 PM72 °FLight rain. Passing clouds.13 mph83%29.95 "HgN/A
6:00 PM72 °FLight rain. Broken clouds.12 mph83%29.95 "HgN/A
5:30 PM72 °FLight rain. Partly sunny.12 mph83%29.95 "HgN/A
5:00 PM72 °FLight rain. Fog.13 mph83%29.95 "HgN/A
4:30 PM72 °FLight rain. Partly sunny.12 mph83%29.95 "HgN/A
4:00 PM73 °FBroken clouds.13 mph78%29.95 "HgN/A
3:30 PM73 °FPartly sunny.10 mph78%29.95 "HgN/A
3:00 PM73 °FPartly sunny.12 mph78%29.95 "HgN/A
2:30 PM72 °FPartly sunny.13 mph83%29.95 "HgN/A
2:00 PM72 °FPartly sunny.13 mph83%29.95 "HgN/A
1:30 PM72 °FPartly sunny.12 mph83%29.95 "HgN/A
1:00 PM72 °FLight rain. Broken clouds.12 mph83%29.95 "HgN/A
12:30 PM72 °FLight rain. Broken clouds.10 mph83%29.95 "HgN/A
12:00 PM72 °FPartly sunny.12 mph83%29.95 "HgN/A
Weather by CustomWeather, © 2014

See weather overviewHow to use our weather pages